CW8504 Weather Reports


Display with metric or nautical units.
time (UTC)temp
F
wind
direction
speed
MPH
gust
MPH
rain 1hr
in
rain 24hr
in
rain mn
in
humidity
%
barometer
mb
20260507210405 61 211 3.0 7.0 0.00 0.00 0.00 29 1015.4
20260507205904 61 240 1.0 3.0 0.00 0.00 0.00 28 1015.4
20260507204404 62 206 2.0 13.0 0.00 0.00 0.00 27 1015.4
20260507203904 62 182 3.0 17.0 0.00 0.00 0.00 28 1015.4
20260507203404 62 208 10.0 23.0 0.00 0.00 0.00 28 1015.5
20260507202403 62 216 6.0 20.0 0.00 0.00 0.00 26 1015.4
20260507201904 63 213 10.0 16.0 0.00 0.00 0.00 24 1015.2
20260507200904 64 207 2.0 6.0 0.00 0.00 0.00 21 1015.1
20260507200404 64 189 2.0 5.0 0.00 0.00 0.00 23 1015.1
20260507195904 64 229 0.0 5.0 0.00 0.00 0.00 23 1015.2
20260507194904 64 203 1.0 5.0 0.00 0.00 0.00 23 1015.3
20260507193904 64 235 3.0 13.0 0.00 0.00 0.00 24 1015.3
20260507192919 63 234 1.0 12.0 0.00 0.00 0.00 27 1015.4
20260507192404 63 220 4.0 13.0 0.00 0.00 0.00 25 1015.5
20260507191904 63 217 2.0 8.0 0.00 0.00 0.00 25 1015.6
20260507191403 63 216 7.0 12.0 0.00 0.00 0.00 25 1015.6
20260507190404 62 215 3.0 13.0 0.00 0.00 0.00 29 1015.6
20260507185904 61 229 7.0 20.0 0.00 0.00 0.00 27 1015.7
20260507184904 62 225 3.0 9.0 0.00 0.00 0.00 27 1015.8
20260507184404 62 215 1.0 6.0 0.00 0.00 0.00 26 1015.9
20260507183904 62 223 3.0 12.0 0.00 0.00 0.00 26 1015.9
20260507183404 62 247 2.0 12.0 0.00 0.00 0.00 27 1015.8
20260507182903 62 233 0.0 3.0 0.00 0.00 0.00 26 1016.0
20260507182404 62 219 1.0 13.0 0.00 0.00 0.00 27 1016.0
20260507181905 62 225 3.0 12.0 0.00 0.00 0.00 26 1016.1
20260507181404 61 236 3.0 10.0 0.00 0.00 0.00 28 1016.1
20260507180904 61 235 3.0 12.0 0.00 0.00 0.00 28 1016.1
20260507180404 61 227 2.0 7.0 0.00 0.00 0.00 28 1016.2
20260507174403 60 209 3.0 10.0 0.00 0.00 0.00 28 1016.4
20260507173904 60 222 1.0 8.0 0.00 0.00 0.00 29 1016.4
20260507173404 59 205 3.0 8.0 0.00 0.00 0.00 30 1016.5
20260507172904 59 231 1.0 9.0 0.00 0.00 0.00 30 1016.5
20260507172404 59 215 2.0 9.0 0.00 0.00 0.00 29 1016.5
20260507171904 58 225 2.0 8.0 0.00 0.00 0.00 29 1016.5
20260507171407 59 223 1.0 5.0 0.00 0.00 0.00 29 1016.6
20260507170404 58 215 4.0 13.0 0.00 0.00 0.00 30 1016.6
20260507165904 58 204 5.0 14.0 0.00 0.00 0.00 29 1016.6
20260507165404 58 201 2.0 12.0 0.00 0.00 0.00 31 1016.6
20260507163904 58 207 2.0 12.0 0.00 0.00 0.00 29 1016.8
20260507163404 58 214 2.0 10.0 0.00 0.00 0.00 28 1016.8
20260507162904 58 222 2.0 7.0 0.00 0.00 0.00 31 1016.8
20260507162404 58 218 1.0 12.0 0.00 0.00 0.00 30 1016.8
20260507161903 58 222 3.0 12.0 0.00 0.00 0.00 30 1016.7
20260507161404 58 222 1.0 9.0 0.00 0.00 0.00 29 1016.8
20260507160904 58 210 5.0 10.0 0.00 0.00 0.00 28 1016.8
20260507160403 58 211 3.0 9.0 0.00 0.00 0.00 29 1016.9
20260507155404 58 207 2.0 7.0 0.00 0.00 0.00 28 1016.9
20260507154404 58 210 3.0 8.0 0.00 0.00 0.00 27 1016.9
20260507153904 58 216 5.0 10.0 0.00 0.00 0.00 29 1016.9
20260507153404 58 221 3.0 8.0 0.00 0.00 0.00 29 1017.0
20260507152904 58 221 3.0 7.0 0.00 0.00 0.00 29 1017.0
20260507152404 58 230 4.0 9.0 0.00 0.00 0.00 30 1017.0
20260507151904 57 212 4.0 8.0 0.00 0.00 0.00 29 1017.1
20260507151404 57 186 1.0 9.0 0.00 0.00 0.00 31 1017.0
20260507150904 56 223 5.0 12.0 0.00 0.00 0.00 31 1017.0
20260507150405 56 219 6.0 10.0 0.00 0.00 0.00 32 1017.0
20260507145904 55 217 4.0 7.0 0.00 0.00 0.00 34 1017.0
20260507144904 53 238 0.0 0.0 0.00 0.00 0.00 38 1017.0
20260507144404 52 27 0.0 0.0 0.00 0.00 0.00 38 1017.1
20260507143904 52 15 0.0 0.0 0.00 0.00 0.00 37 1017.1
20260507143404 51 9 0.0 0.0 0.00 0.00 0.00 39 1017.0
20260507142904 50 9 0.0 0.0 0.00 0.00 0.00 40 1017.1
20260507142404 50 9 0.0 0.0 0.00 0.00 0.00 41 1017.1
20260507141904 49 9 0.0 0.0 0.00 0.00 0.00 44 1017.1
20260507141404 49 9 0.0 0.0 0.00 0.00 0.00 45 1017.1
20260507140404 48 9 0.0 0.0 0.00 0.00 0.00 48 1017.1
20260507135904 47 9 0.0 0.0 0.00 0.00 0.00 49 1017.1
20260507135404 46 9 0.0 0.0 0.00 0.00 0.00 51 1017.3
20260507134903 46 9 0.0 0.0 0.00 0.00 0.00 53 1017.3
20260507134404 45 9 0.0 0.0 0.00 0.00 0.00 55 1017.2
20260507133904 44 2 0.0 0.0 0.00 0.00 0.00 56 1017.1
20260507133404 44 355 0.0 0.0 0.00 0.00 0.00 59 1017.1
20260507132904 43 355 0.0 0.0 0.00 0.00 0.00 61 1017.2
20260507132404 42 355 0.0 0.0 0.00 0.00 0.00 63 1017.1
20260507131905 41 355 0.0 0.0 0.00 0.00 0.00 65 1017.1
20260507130904 40 355 0.0 0.0 0.00 0.00 0.00 65 1017.2
20260507130404 39 355 0.0 0.0 0.00 0.00 0.00 65 1017.2
20260507125904 39 355 0.0 0.0 0.00 0.00 0.00 64 1017.1
20260507124904 39 355 0.0 0.0 0.00 0.00 0.00 64 1017.2
20260507124405 39 355 0.0 0.0 0.00 0.00 0.00 63 1017.2
20260507123903 39 355 0.0 0.0 0.00 0.00 0.00 62 1017.3
20260507123404 40 355 0.0 0.0 0.00 0.00 0.00 63 1017.3
20260507122904 40 355 0.0 0.0 0.00 0.00 0.00 63 1017.2
20260507122404 40 355 0.0 0.0 0.00 0.00 0.00 63 1017.1
20260507121904 40 355 0.0 0.0 0.00 0.00 0.00 62 1017.1
20260507120404 41 355 0.0 0.0 0.00 0.00 0.00 63 1017.2
20260507115904 41 355 0.0 0.0 0.00 0.00 0.00 63 1017.4
20260507115404 41 355 0.0 0.0 0.00 0.00 0.00 64 1017.6
20260507114404 41 355 0.0 0.0 0.00 0.00 0.00 65 1017.4
20260507113903 41 355 0.0 0.0 0.00 0.00 0.00 65 1017.3
20260507113404 41 355 0.0 0.0 0.00 0.00 0.00 66 1017.3
20260507112905 41 355 0.0 0.0 0.00 0.00 0.00 65 1017.4
20260507112404 41 355 0.0 0.0 0.00 0.00 0.00 65 1017.6
20260507111904 41 355 0.0 0.0 0.00 0.00 0.00 65 1017.6
20260507111404 41 355 0.0 0.0 0.00 0.00 0.00 65 1017.3
20260507110904 41 355 0.0 0.0 0.00 0.00 0.00 64 1017.1
20260507110404 41 355 0.0 0.0 0.00 0.00 0.00 64 1017.2
20260507105904 41 355 0.0 0.0 0.00 0.00 0.00 64 1017.2
20260507104904 41 355 0.0 0.0 0.00 0.00 0.00 64 1017.4
20260507103904 41 355 0.0 0.0 0.00 0.00 0.00 64 1017.3
20260507103404 41 355 0.0 0.0 0.00 0.00 0.00 64 1017.2
20260507102904 41 355 0.0 0.0 0.00 0.00 0.00 64 1017.3
20260507101904 41 355 0.0 0.0 0.00 0.00 0.00 62 1017.2
20260507101404 41 355 0.0 0.0 0.00 0.00 0.00 62 1017.1
20260507100904 41 355 0.0 0.0 0.00 0.00 0.00 62 1017.1
20260507095905 41 355 0.0 0.0 0.00 0.00 0.00 61 1017.1
20260507095404 41 355 0.0 0.0 0.00 0.00 0.00 60 1017.0
20260507094904 41 355 0.0 0.0 0.00 0.00 0.00 60 1017.0
20260507094404 42 355 0.0 0.0 0.00 0.00 0.00 60 1017.0
20260507093904 42 355 0.0 0.0 0.00 0.00 0.00 60 1017.1
20260507093404 42 355 0.0 0.0 0.00 0.00 0.00 61 1017.0
20260507092904 42 355 0.0 0.0 0.00 0.00 0.00 62 1017.0
20260507092404 42 355 0.0 0.0 0.00 0.00 0.00 60 1017.0
20260507091904 42 355 0.0 0.0 0.00 0.00 0.00 61 1017.0
20260507091404 42 355 0.0 0.0 0.00 0.00 0.00 61 1017.0
20260507090905 42 355 0.0 0.0 0.00 0.00 0.00 61 1017.0
20260507090404 42 355 0.0 0.0 0.00 0.00 0.00 61 1016.9
20260507085904 42 355 0.0 0.0 0.00 0.00 0.00 60 1016.9
20260507085404 42 355 0.0 0.0 0.00 0.00 0.00 60 1016.8
20260507084404 42 355 0.0 0.0 0.00 0.00 0.00 61 1016.6
20260507083404 42 355 0.0 0.0 0.00 0.00 0.00 60 1016.6
20260507082404 42 355 0.0 0.0 0.00 0.00 0.00 60 1016.7
20260507081904 41 355 0.0 0.0 0.00 0.00 0.00 60 1016.6
20260507081403 41 355 0.0 0.0 0.00 0.00 0.00 59 1016.6
20260507080904 41 355 0.0 0.0 0.00 0.00 0.00 59 1016.8
20260507080404 41 355 0.0 0.0 0.00 0.00 0.00 58 1016.9
20260507075903 41 355 0.0 0.0 0.00 0.00 0.00 58 1016.7
20260507075405 42 355 0.0 0.0 0.00 0.00 0.00 57 1016.6
20260507074404 42 355 0.0 0.0 0.00 0.00 0.00 57 1016.6
20260507073904 42 355 0.0 0.0 0.00 0.00 0.00 57 1016.4
20260507073404 42 355 0.0 0.0 0.00 0.00 0.00 57 1016.8
20260507072904 42 355 0.0 0.0 0.00 0.00 0.00 57 1016.8
20260507072404 42 355 0.0 0.0 0.00 0.00 0.00 57 1016.8
20260507071904 42 355 0.0 0.0 0.00 0.00 0.00 57 1016.8
20260507071404 42 355 0.0 0.0 0.00 0.00 0.00 58 1016.8
20260507070404 42 355 0.0 0.0 0.00 0.00 0.00 57 1017.1
20260507065904 42 355 0.0 0.0 0.00 0.00 0.00 57 1017.0
20260507065403 42 355 0.0 0.0 0.00 0.00 0.00 57 1017.0
20260507064404 42 238 0.0 0.0 0.00 0.00 0.00 57 1017.2
20260507063904 42 238 0.0 0.0 0.00 0.00 0.00 57 1017.2
20260507063405 42 238 0.0 0.0 0.00 0.00 0.00 56 1017.1
20260507062404 43 238 0.0 0.0 0.00 0.00 0.00 56 1017.1
20260507061905 43 238 0.0 0.0 0.00 0.00 0.00 56 1017.2
20260507061404 43 238 0.0 0.0 0.00 0.00 0.00 56 1017.1
20260507060904 43 238 0.0 0.0 0.00 0.00 0.00 55 1017.2
20260507060403 43 238 0.0 0.0 0.00 0.00 0.00 54 1017.2
20260507055904 43 270 0.0 0.0 0.00 0.00 0.00 55 1017.2
20260507055404 43 270 0.0 0.0 0.00 0.00 0.00 56 1017.2
20260507054904 43 270 0.0 0.0 0.00 0.00 0.00 55 1017.2
20260507054404 43 269 0.0 0.0 0.00 0.00 0.00 56 1017.3
20260507053904 43 270 0.0 0.0 0.00 0.00 0.00 56 1017.3
20260507052404 43 270 0.0 0.0 0.00 0.00 0.00 56 1017.3
20260507051904 43 269 0.0 0.0 0.00 0.00 0.00 55 1017.3
20260507051404 43 269 0.0 0.0 0.00 0.00 0.00 54 1017.3
20260507050904 43 269 0.0 0.0 0.00 0.00 0.00 54 1017.4
20260507050404 43 269 0.0 0.0 0.00 0.00 0.00 55 1017.4
20260507045404 43 269 0.0 0.0 0.00 0.00 0.00 54 1017.5
20260507044904 43 269 0.0 0.0 0.00 0.00 0.00 52 1017.5
20260507044404 44 269 0.0 0.0 0.00 0.00 0.00 52 1017.5
20260507043904 44 269 0.0 0.0 0.00 0.00 0.00 52 1017.5
20260507043403 44 269 0.0 0.0 0.00 0.00 0.00 51 1017.5
20260507042404 44 269 0.0 0.0 0.00 0.00 0.00 48 1017.5
20260507041905 44 269 0.0 0.0 0.00 0.00 0.00 48 1017.6
20260507041404 45 269 0.0 0.0 0.00 0.00 0.00 47 1017.6
20260507040904 45 269 0.0 0.0 0.00 0.00 0.00 48 1017.6
20260507040404 45 269 0.0 0.0 0.00 0.00 0.00 45 1017.6
20260507035904 46 269 0.0 0.0 0.00 0.00 0.00 42 1017.8
20260507035404 46 269 0.0 0.0 0.00 0.00 0.00 41 1017.7
20260507034904 46 269 0.0 0.0 0.00 0.00 0.00 40 1017.7
20260507034404 47 269 0.0 0.0 0.00 0.00 0.00 41 1017.6
20260507033904 47 269 0.0 0.0 0.00 0.00 0.00 39 1017.6
20260507033404 48 269 0.0 0.0 0.00 0.00 0.00 40 1017.6
20260507032904 48 269 0.0 0.0 0.00 0.00 0.00 40 1017.6
20260507032405 49 269 0.0 0.0 0.00 0.00 0.00 37 1017.4
20260507031904 49 269 0.0 0.0 0.00 0.00 0.00 37 1017.4
20260507031405 50 269 0.0 0.0 0.00 0.00 0.00 38 1017.5
20260507030904 50 269 0.0 0.0 0.00 0.00 0.00 36 1017.4
20260507025904 51 269 0.0 0.0 0.00 0.00 0.00 36 1017.3
20260507025404 52 269 0.0 0.0 0.00 0.00 0.00 33 1017.3
20260507024904 53 269 0.0 0.0 0.00 0.00 0.00 32 1017.4
20260507024404 53 269 0.0 0.0 0.00 0.00 0.00 32 1017.3
20260507023904 53 269 0.0 0.0 0.00 0.00 0.00 32 1017.2
20260507022904 54 269 0.0 0.0 0.00 0.00 0.00 28 1017.2
20260507022404 54 269 0.0 0.0 0.00 0.00 0.00 28 1017.2
20260507021904 55 269 0.0 0.0 0.00 0.00 0.00 28 1017.2
20260507021404 55 269 0.0 0.0 0.00 0.00 0.00 28 1017.3
20260507020903 55 269 0.0 0.0 0.00 0.00 0.00 26 1017.3
20260507020404 55 269 0.0 0.0 0.00 0.00 0.00 26 1017.3
20260507015904 55 269 0.0 0.0 0.00 0.00 0.00 26 1017.4
20260507015404 55 269 0.0 0.0 0.00 0.00 0.00 25 1017.5
20260507014903 55 269 0.0 0.0 0.00 0.00 0.00 24 1017.4
20260507014404 56 269 0.0 0.0 0.00 0.00 0.00 24 1017.3
20260507013903 56 269 0.0 0.0 0.00 0.00 0.00 23 1017.2
20260507013405 56 269 0.0 1.0 0.00 0.00 0.00 22 1017.2
20260507012404 57 278 1.0 2.0 0.00 0.00 0.00 21 1017.1
20260507010903 57 251 1.0 5.0 0.00 0.00 0.00 21 1017.1
20260507010404 57 247 1.0 3.0 0.00 0.00 0.00 21 1017.0
20260507005904 57 241 2.0 12.0 0.00 0.00 0.00 21 1017.1
20260507004904 57 236 1.0 13.0 0.00 0.00 0.00 20 1017.0
20260507004404 57 239 6.0 14.0 0.00 0.00 0.00 21 1017.0
20260507003904 57 225 1.0 12.0 0.00 0.00 0.00 21 1016.9
20260507002904 58 231 0.0 8.0 0.00 0.00 0.00 20 1016.9
20260507002404 58 230 5.0 13.0 0.00 0.00 0.00 18 1016.9
20260507001904 59 231 0.0 1.0 0.00 0.00 0.00 20 1016.8
20260507001404 59 228 0.0 6.0 0.00 0.00 0.00 19 1016.8
20260507000405 59 342 1.0 6.0 0.00 0.00 0.00 17 1016.7
20260506235904 59 355 0.0 8.0 0.00 0.00 0.00 16 1016.9
20260506235404 59 304 1.0 15.0 0.00 0.00 0.00 17 1016.7
20260506234904 58 224 5.0 16.0 0.00 0.00 0.00 19 1016.7
20260506233903 57 229 0.0 2.0 0.00 0.00 0.00 17 1016.8
20260506233404 57 233 0.0 3.0 0.00 0.00 0.00 16 1016.7
20260506232904 58 0 1.0 9.0 0.00 0.00 0.00 15 1016.7
20260506232404 58 41 1.0 9.0 0.00 0.00 0.00 15 1016.7
20260506231905 59 301 0.0 0.0 0.00 0.00 0.00 15 1016.6
20260506230904 60 264 1.0 3.0 0.00 0.00 0.00 13 1016.7
20260506230404 59 24 1.0 7.0 0.00 0.00 0.00 14 1016.8
20260506225904 60 15 5.0 16.0 0.00 0.00 0.00 13 1016.8
20260506225404 61 5 1.0 12.0 0.00 0.00 0.00 13 1016.9
20260506224904 61 88 0.0 2.0 0.00 0.00 0.00 13 1016.9
20260506224403 61 125 0.0 3.0 0.00 0.00 0.00 12 1017.0
20260506223904 61 229 3.0 9.0 0.00 0.00 0.00 11 1017.0
20260506223404 61 234 1.0 8.0 0.00 0.00 0.00 12 1017.0
20260506222904 61 212 2.0 8.0 0.00 0.00 0.00 11 1017.0
20260506222404 61 230 3.0 8.0 0.00 0.00 0.00 11 1017.1
20260506221903 61 281 0.0 3.0 0.00 0.00 0.00 11 1017.0
20260506221403 61 222 2.0 9.0 0.00 0.00 0.00 12 1017.2
20260506220404 60 259 1.0 7.0 0.00 0.00 0.00 10 1017.5
20260506215905 60 312 4.0 14.0 0.00 0.00 0.00 10 1017.2
20260506215404 60 44 1.0 6.0 0.00 0.00 0.00 9 1017.1
20260506214904 59 249 0.0 12.0 0.00 0.00 0.00 12 1017.1
20260506214404 59 17 0.0 9.0 0.00 0.00 0.00 10 1017.1
20260506213404 59 37 4.0 12.0 0.00 0.00 0.00 10 1017.1
20260506212904 59 251 2.0 9.0 0.00 0.00 0.00 11 1017.2
20260506212404 58 359 1.0 10.0 0.00 0.00 0.00 11 1017.3
20260506211905 59 36 1.0 10.0 0.00 0.00 0.00 10 1017.3
20260506211405 59 323 2.0 6.0 0.00 0.00 0.00 9 1017.4